Peru, IL

1:00 PM CDT on August 17, 2017 (GMT -0500)
Illinois Valley Regional-Duncan

Weather History for KVYS - June, 2012

Change the Weather History Date:

Thursday, June 21, 2012

  Actual Average Record
Temperature  
Mean Temperature 73 °F -  
Max Temperature 83 °F 83 °F 101 °F (1988)
Min Temperature 63 °F 59 °F 41 °F (1969)
Cooling Degree Days 8    
Growing Degree Days 23 (Base 50)    
Moisture  
Dew Point 62 °F    
Average Humidity 64    
Maximum Humidity 85    
Minimum Humidity 39    
Precipitation  
Precipitation 0.00 in - - ()
Sea Level Pressure  
Sea Level Pressure 29.95 in    
Wind  
Wind Speed 10 mph (West)    
Max Wind Speed 15 mph    
Max Gust Speed 20 mph    
Visibility 10 miles    
Events      
Averages and records for this station are not official NWS values.
T = Trace of Precipitation, MM = Missing Value Source: NWS Daily Summary

Daily Weather History Graph

Daily Weather History Graph

Search for Another Location

Airport or City:

Trip Planner

Search our weather history database for the weather conditions in past years. The results will help you decide how hot, cold, wet, or windy it might be!

Date:

Astronomy

Jun. 21, 2012 Rise Set
Actual Time 5:23 AM CDT 8:33 PM CDT
Civil Twilight 4:49 AM CDT 9:07 PM CDT
Nautical Twilight 4:06 AM CDT 9:51 PM CDT
Astronomical Twilight 3:13 AM CDT 10:43 PM CDT
Moon 7:23 AM CDT (6/21) 9:54 PM CDT (6/21)
Length of Visible Light 16h 17m
Length of Day
15h 10m
Waxing Crescent, 4% of the Moon is Illuminated
Jun 21
Waxing Crescent
Jun 26
First Quarter
Jul 3
Full
Jul 10
Last Quarter
Jul 18
New

Hourly Weather History & Observations

Time (CDT) Temp. Heat Index Dew Point Humidity Pressure Visibility Wind Dir Wind Speed Gust Speed Precip Events Conditions
12:15 AM 78.1 °F - 63.5 °F 61% 29.91 in 10.0 mi South 10.4 mph - N/A   Clear
12:35 AM 77.9 °F - 63.5 °F 61% 29.91 in 10.0 mi SSW 11.5 mph - N/A   Clear
12:55 AM 77.9 °F - 63.7 °F 61% 29.90 in 10.0 mi SSW 11.5 mph - N/A   Clear
1:15 AM 77.9 °F - 63.9 °F 62% 29.90 in 10.0 mi SSW 10.4 mph - N/A   Scattered Clouds
1:35 AM 77.0 °F - 63.5 °F 63% 29.89 in 10.0 mi South 13.8 mph - N/A   Scattered Clouds
1:55 AM 77.0 °F - 63.5 °F 63% 29.89 in 10.0 mi SSW 11.5 mph - N/A   Scattered Clouds
2:15 AM 76.5 °F - 63.7 °F 64% 29.90 in 10.0 mi SSW 9.2 mph - N/A   Scattered Clouds
2:35 AM 75.7 °F - 63.9 °F 66% 29.89 in 10.0 mi SSW 9.2 mph - N/A   Scattered Clouds
2:55 AM 76.6 °F - 64.4 °F 66% 29.89 in 10.0 mi SW 9.2 mph - N/A   Mostly Cloudy
3:15 AM 79.0 °F - 64.6 °F 61% 29.90 in 10.0 mi WSW 10.4 mph - N/A   Overcast
3:35 AM 77.9 °F - 64.8 °F 64% 29.91 in 10.0 mi West 12.7 mph 16.1 mph N/A   Scattered Clouds
3:55 AM 77.0 °F - 64.4 °F 65% 29.91 in 10.0 mi SW 10.4 mph - N/A   Mostly Cloudy
4:15 AM 76.3 °F - 65.3 °F 69% 29.91 in 10.0 mi SW 8.1 mph - N/A   Scattered Clouds
4:35 AM 75.2 °F - 65.5 °F 72% 29.91 in 10.0 mi WSW 5.8 mph - N/A   Scattered Clouds
4:55 AM 73.4 °F - 65.3 °F 76% 29.91 in 10.0 mi West 5.8 mph - N/A   Clear
5:15 AM 73.0 °F - 64.9 °F 76% 29.89 in 10.0 mi SSW 6.9 mph - N/A   Clear
5:35 AM 72.7 °F - 65.5 °F 78% 29.89 in 10.0 mi SSW 6.9 mph - N/A   Clear
5:55 AM 72.7 °F - 66.0 °F 80% 29.90 in 10.0 mi SW 8.1 mph - N/A   Scattered Clouds
6:15 AM 75.2 °F - 66.6 °F 74% 29.91 in 10.0 mi WSW 8.1 mph - N/A   Scattered Clouds
6:35 AM 75.2 °F - 66.7 °F 75% 29.92 in 10.0 mi West 9.2 mph - N/A   Mostly Cloudy
6:55 AM 75.2 °F - 66.2 °F 73% 29.93 in 10.0 mi West 10.4 mph - N/A   Overcast
7:15 AM 75.2 °F - 65.5 °F 72% 29.94 in 10.0 mi West 8.1 mph 16.1 mph N/A   Overcast
7:35 AM 74.1 °F - 64.8 °F 72% 29.94 in 10.0 mi WNW 12.7 mph 18.4 mph N/A   Overcast
7:55 AM 73.6 °F - 65.3 °F 75% 29.94 in 10.0 mi WNW 15.0 mph - N/A   Mostly Cloudy
8:15 AM 73.0 °F - 65.3 °F 77% 29.95 in 10.0 mi WNW 13.8 mph - N/A   Mostly Cloudy
8:35 AM 72.5 °F - 66.0 °F 80% 29.94 in 10.0 mi NW 10.4 mph - N/A   Overcast
8:55 AM 71.6 °F - 66.7 °F 85% 29.96 in 10.0 mi WNW 9.2 mph - N/A   Mostly Cloudy
9:15 AM 71.8 °F - 66.9 °F 85% 29.96 in 10.0 mi WNW 6.9 mph - N/A   Mostly Cloudy
9:35 AM 72.7 °F - 66.6 °F 81% 29.96 in 10.0 mi NW 10.4 mph - N/A   Mostly Cloudy
9:55 AM 73.4 °F - 66.2 °F 78% 29.96 in 10.0 mi NW 10.4 mph - N/A   Overcast
10:15 AM 72.7 °F - 65.5 °F 78% 29.97 in 10.0 mi WNW 8.1 mph - N/A   Overcast
10:35 AM 72.9 °F - 65.8 °F 79% 29.97 in 10.0 mi NNW 9.2 mph - N/A   Overcast
10:55 AM 72.7 °F - 64.8 °F 76% 29.98 in 10.0 mi NNW 10.4 mph - N/A   Mostly Cloudy
11:15 AM 74.8 °F - 65.8 °F 73% 29.99 in 10.0 mi NW 10.4 mph - N/A   Mostly Cloudy
11:35 AM 74.8 °F - 64.4 °F 70% 29.99 in 10.0 mi NW 11.5 mph - N/A   Mostly Cloudy
11:55 AM 73.2 °F - 62.1 °F 68% 29.99 in 10.0 mi NW 11.5 mph - N/A   Scattered Clouds
12:15 PM 73.8 °F - 61.5 °F 65% 30.00 in 10.0 mi NW 9.2 mph - N/A   Clear
12:35 PM 72.9 °F - 61.3 °F 67% 30.00 in 10.0 mi West 6.9 mph - N/A   Mostly Cloudy
12:55 PM 75.2 °F - 62.8 °F 65% 30.00 in 10.0 mi NW 10.4 mph - N/A   Scattered Clouds
1:15 PM 75.2 °F - 60.1 °F 59% 30.00 in 10.0 mi NW 5.8 mph - N/A   Clear
1:35 PM 75.2 °F - 62.4 °F 64% 29.99 in 10.0 mi WNW 3.5 mph - N/A   Clear
1:55 PM 75.4 °F - 62.2 °F 64% 29.99 in 10.0 mi NW 8.1 mph - N/A   Clear
2:15 PM 76.6 °F - 61.5 °F 59% 29.99 in 10.0 mi West 5.8 mph - N/A   Clear
2:35 PM 77.5 °F - 61.3 °F 57% 29.98 in 10.0 mi NW 8.1 mph - N/A   Clear
2:55 PM 78.6 °F - 61.7 °F 56% 29.97 in 10.0 mi WNW 8.1 mph - N/A   Clear
3:15 PM 80.1 °F 81.4 °F 62.4 °F 55% 29.96 in 10.0 mi WNW 9.2 mph - N/A   Clear
3:35 PM 81.0 °F 81.9 °F 61.7 °F 52% 29.95 in 10.0 mi WNW 9.2 mph - N/A   Scattered Clouds
3:55 PM 80.2 °F 81.0 °F 59.9 °F 50% 29.94 in 10.0 mi West 5.8 mph - N/A   Scattered Clouds
4:15 PM 82.4 °F 81.9 °F 56.3 °F 41% 29.94 in 10.0 mi WNW 9.2 mph - N/A   Scattered Clouds
4:35 PM 82.4 °F 81.9 °F 56.5 °F 41% 29.94 in 10.0 mi WNW 10.4 mph - N/A   Scattered Clouds
4:55 PM 82.8 °F 82.1 °F 56.1 °F 40% 29.94 in 10.0 mi NW 11.5 mph - N/A   Clear
5:15 PM 82.9 °F 82.6 °F 57.4 °F 42% 29.93 in 10.0 mi West 13.8 mph 18.4 mph N/A   Scattered Clouds
5:35 PM 82.8 °F 82.0 °F 55.2 °F 39% 29.93 in 10.0 mi WNW 11.5 mph 16.1 mph N/A   Scattered Clouds
5:55 PM 82.2 °F 81.5 °F 55.2 °F 39% 29.93 in 10.0 mi West 12.7 mph 19.6 mph N/A   Clear
6:15 PM 81.9 °F 81.4 °F 56.1 °F 41% 29.93 in 10.0 mi WNW 13.8 mph - N/A   Scattered Clouds
6:35 PM 81.1 °F 80.9 °F 55.6 °F 41% 29.94 in 10.0 mi WNW 13.8 mph - N/A   Scattered Clouds
6:55 PM 80.6 °F 80.5 °F 55.6 °F 42% 29.94 in 10.0 mi WNW 13.8 mph - N/A   Clear
7:15 PM 80.2 °F 80.5 °F 57.4 °F 45% 29.94 in 10.0 mi WNW 10.4 mph - N/A   Clear
7:35 PM 79.0 °F - 55.6 °F 44% 29.95 in 10.0 mi WNW 6.9 mph - N/A   Clear
7:55 PM 77.7 °F - 56.5 °F 48% 29.95 in 10.0 mi WNW 6.9 mph - N/A   Clear
8:15 PM 75.9 °F - 57.0 °F 52% 29.96 in 10.0 mi WNW 6.9 mph - N/A   Clear
8:35 PM 73.8 °F - 57.2 °F 56% 29.96 in 10.0 mi West 4.6 mph - N/A   Clear
8:55 PM 71.6 °F - 57.7 °F 62% 29.97 in 10.0 mi West 5.8 mph - N/A   Clear
9:15 PM 70.2 °F - 58.1 °F 65% 29.97 in 10.0 mi WNW 8.1 mph - N/A   Clear
9:35 PM 70.7 °F - 57.7 °F 63% 29.98 in 10.0 mi WNW 6.9 mph - N/A   Clear
9:55 PM 69.1 °F - 57.7 °F 67% 29.99 in 10.0 mi WNW 8.1 mph - N/A   Clear
10:15 PM 68.7 °F - 57.4 °F 67% 29.99 in 10.0 mi WNW 8.1 mph - N/A   Clear
10:35 PM 67.5 °F - 57.4 °F 70% 30.00 in 10.0 mi WNW 8.1 mph - N/A   Clear
10:55 PM 66.2 °F - 57.2 °F 73% 30.00 in 10.0 mi WNW 8.1 mph - N/A   Clear
11:15 PM 64.8 °F - 56.8 °F 75% 30.00 in 10.0 mi WNW 8.1 mph - N/A   Clear
11:35 PM 64.4 °F - 56.5 °F 75% 30.00 in 10.0 mi NW 8.1 mph - N/A   Clear
11:55 PM 63.9 °F - 56.1 °F 76% 30.00 in 10.0 mi WNW 6.9 mph - N/A   Clear